Simultaneous Nadir Overpasses (SNOs) Predictions

Prediction of SNOs between METOP-A and NOAA-19 Satellite Orbit:

Table of predicted SNOs for the next 14.0 days since TLE Epoch: 11/21/2011
Index Date Time (METOP-A) METOP-A Lat,Lon NOAA-19 Lat,Lon Distance(km) Time Diff (sec)
1 11/21/2011 17:25:22 75.52, -82.60 75.52, -95.30 352.65 32
2 11/21/2011 18:16:24 -74.54, 81.90 -74.56, 74.79 210.64 53
3 11/21/2011 19:07:24 73.55,-113.25 73.57,-115.45 69.34 69
4 11/21/2011 19:58:16 -73.04, 52.92 -73.06, 52.97 2.42 70
5 11/21/2011 20:48:56 73.03,-139.77 73.04,-139.76 1.49 46
6 11/21/2011 21:39:38 -73.02, 27.54 -73.02, 27.52 0.74 27
7 11/21/2011 22:30:18 73.01,-165.15 73.00,-165.21 1.84 3
8 11/21/2011 23:21:00 -73.00, 2.16 -72.99, 2.07 3.00 16
9 11/22/2011 00:11:40 72.94, 169.36 72.92, 169.45 3.64 38
10 11/22/2011 01:02:22 -72.93, -23.33 -72.95, -23.38 3.22 58
11 11/22/2011 01:53:08 72.61, 143.33 72.63, 144.54 40.25 70
12 11/22/2011 02:44:04 -71.89, -50.76 -71.91, -46.76 138.45 61
13 11/22/2011 03:35:06 70.72, 114.52 70.76, 122.54 294.22 41
14 12/01/2011 12:14:23 75.24, -5.64 75.26, -16.76 314.50 38
15 12/01/2011 13:05:22 -74.41, 159.33 -74.41, 152.95 190.82 56
16 12/01/2011 13:56:23 73.36, -35.89 73.40, -37.31 45.48 71
17 12/01/2011 14:47:11 -73.04, 130.74 -73.05, 130.73 0.61 67
18 12/01/2011 15:37:51 73.03, -61.95 73.02, -61.97 2.17 41
19 12/01/2011 16:28:33 -73.02, 105.35 -73.02, 105.28 2.33 24
20 12/01/2011 17:19:14 72.96, -87.45 72.98, -87.42 2.38 1
21 12/01/2011 18:09:56 -72.95, 79.86 -72.93, 79.94 3.42 17
22 12/01/2011 19:00:36 72.94,-112.83 72.95,-112.87 1.49 44
23 12/01/2011 19:51:18 -72.93, 54.47 -72.90, 54.49 3.29 60
24 12/01/2011 20:42:08 72.41,-139.27 72.46,-137.36 64.49 68
25 12/01/2011 21:33:03 -71.73, 26.75 -71.80, 31.19 154.88 59




NCC Satellite Simultaneous Nadir Overpasses (SNOs) Prediction Service
